| time (UTC) | temp F | wind direction | speed MPH | gust MPH | rain 1hr in | rain 24hr in | rain mn in | humidity % | barometer mb |
| 20260504231519 | 72 | 270 | 5.0 | 5.0 | 0.00 | 0.00 | 0.00 | 59 | 1008.4 |
| 20260504230952 | 73 | 248 | 3.0 | 10.0 | 0.00 | 0.00 | 0.00 | 60 | 1008.4 |
| 20260504225715 | 74 | 225 | 1.0 | 2.0 | 0.00 | 0.00 | 0.00 | 58 | 1008.4 |
| 20260504225147 | 75 | 270 | 4.0 | 5.0 | 0.00 | 0.00 | 0.00 | 56 | 1008.4 |
| 20260504224511 | 75 | 248 | 0.0 | 3.0 | 0.00 | 0.00 | 0.00 | 58 | 1008.4 |
| 20260504223935 | 73 | 270 | 2.0 | 5.0 | 0.00 | 0.00 | 0.00 | 56 | 1008.8 |
| 20260504223316 | 73 | 270 | 4.0 | 6.0 | 0.00 | 0.00 | 0.00 | 55 | 1008.8 |
| 20260504222753 | 75 | 248 | 5.0 | 8.0 | 0.00 | 0.00 | 0.00 | 52 | 1008.8 |
| 20260504222112 | 74 | 270 | 5.0 | 9.0 | 0.00 | 0.00 | 0.00 | 54 | 1008.8 |
| 20260504221522 | 74 | 270 | 6.0 | 10.0 | 0.00 | 0.00 | 0.00 | 54 | 1009.1 |
| 20260504220927 | 75 | 270 | 6.0 | 8.0 | 0.00 | 0.00 | 0.00 | 52 | 1008.8 |
| 20260504220316 | 75 | 270 | 10.0 | 10.0 | 0.00 | 0.00 | 0.00 | 53 | 1008.8 |
| 20260504215123 | 74 | 270 | 6.0 | 12.0 | 0.00 | 0.00 | 0.00 | 55 | 1008.4 |
| 20260504214552 | 74 | 270 | 10.0 | 10.0 | 0.00 | 0.00 | 0.00 | 55 | 1008.4 |
| 20260504213951 | 75 | 270 | 6.0 | 9.0 | 0.00 | 0.00 | 0.00 | 53 | 1008.4 |
| 20260504211528 | 73 | 225 | 4.0 | 10.0 | 0.00 | 0.00 | 0.00 | 54 | 1008.8 |
| 20260504210950 | 74 | 203 | 4.0 | 4.0 | 0.00 | 0.00 | 0.00 | 54 | 1008.4 |
| 20260504210330 | 74 | 270 | 9.0 | 11.0 | 0.00 | 0.00 | 0.00 | 54 | 1008.4 |
| 20260504205734 | 74 | 270 | 8.0 | 16.0 | 0.00 | 0.00 | 0.00 | 53 | 1008.4 |
| 20260504205140 | 75 | 248 | 9.0 | 10.0 | 0.00 | 0.00 | 0.00 | 53 | 1008.4 |
| 20260504204542 | 75 | 293 | 7.0 | 11.0 | 0.00 | 0.00 | 0.00 | 52 | 1008.4 |
| 20260504203932 | 76 | 270 | 8.0 | 13.0 | 0.00 | 0.00 | 0.00 | 51 | 1008.4 |
| 20260504202734 | 76 | 180 | 4.0 | 10.0 | 0.00 | 0.00 | 0.00 | 51 | 1008.8 |
| 20260504202114 | 74 | 225 | 3.0 | 9.0 | 0.00 | 0.00 | 0.00 | 53 | 1008.4 |
| 20260504201541 | 74 | 248 | 7.0 | 7.0 | 0.00 | 0.00 | 0.00 | 52 | 1008.4 |
| 20260504200320 | 75 | 270 | 8.0 | 8.0 | 0.00 | 0.00 | 0.00 | 52 | 1008.8 |
| 20260504195752 | 74 | 270 | 5.0 | 6.0 | 0.00 | 0.00 | 0.00 | 53 | 1008.4 |
| 20260504195125 | 75 | 270 | 7.0 | 12.0 | 0.00 | 0.00 | 0.00 | 51 | 1008.4 |
| 20260504194552 | 76 | 248 | 10.0 | 10.0 | 0.00 | 0.00 | 0.00 | 52 | 1008.4 |
| 20260504193936 | 76 | 225 | 3.0 | 3.0 | 0.00 | 0.00 | 0.00 | 53 | 1008.4 |
| 20260504193338 | 75 | 270 | 8.0 | 8.0 | 0.00 | 0.00 | 0.00 | 51 | 1008.4 |
| 20260504192722 | 75 | 270 | 3.0 | 8.0 | 0.00 | 0.00 | 0.00 | 53 | 1008.8 |
| 20260504192139 | 75 | 248 | 9.0 | 11.0 | 0.00 | 0.00 | 0.00 | 52 | 1009.1 |
| 20260504191533 | 75 | 270 | 4.0 | 9.0 | 0.00 | 0.00 | 0.00 | 53 | 1009.1 |
| 20260504190949 | 75 | 248 | 7.0 | 15.0 | 0.00 | 0.00 | 0.00 | 52 | 1009.1 |
| 20260504185733 | 75 | 180 | 3.0 | 4.0 | 0.00 | 0.00 | 0.00 | 53 | 1009.4 |
| 20260504184535 | 74 | 270 | 7.0 | 16.0 | 0.00 | 0.00 | 0.00 | 53 | 1009.4 |
| 20260504183943 | 75 | 23 | 2.0 | 6.0 | 0.00 | 0.00 | 0.00 | 54 | 1009.4 |
| 20260504183329 | 73 | 68 | 3.0 | 12.0 | 0.00 | 0.00 | 0.00 | 55 | 1009.8 |
| 20260504182741 | 73 | 270 | 6.0 | 15.0 | 0.00 | 0.00 | 0.00 | 55 | 1009.8 |
| 20260504182142 | 73 | 270 | 8.0 | 8.0 | 0.00 | 0.00 | 0.00 | 57 | 1009.8 |
| 20260504181512 | 72 | 225 | 5.0 | 12.0 | 0.00 | 0.00 | 0.00 | 56 | 1009.8 |
| 20260504180923 | 73 | 248 | 14.0 | 16.0 | 0.00 | 0.00 | 0.00 | 56 | 1010.1 |
| 20260504180320 | 72 | 225 | 9.0 | 13.0 | 0.00 | 0.00 | 0.00 | 56 | 1010.1 |
| 20260504175748 | 72 | 270 | 8.0 | 16.0 | 0.00 | 0.00 | 0.00 | 57 | 1010.1 |
| 20260504174534 | 71 | 270 | 10.0 | 15.0 | 0.00 | 0.00 | 0.00 | 56 | 1010.1 |
| 20260504173931 | 73 | 248 | 3.0 | 7.0 | 0.00 | 0.00 | 0.00 | 59 | 1010.1 |
| 20260504172713 | 71 | 293 | 8.0 | 10.0 | 0.00 | 0.00 | 0.00 | 58 | 1010.4 |
| 20260504172134 | 70 | 248 | 6.0 | 12.0 | 0.00 | 0.00 | 0.00 | 58 | 1010.8 |
| 20260504171554 | 70 | 270 | 11.0 | 15.0 | 0.00 | 0.00 | 0.00 | 58 | 1010.8 |
| 20260504170919 | 70 | 270 | 5.0 | 12.0 | 0.00 | 0.00 | 0.00 | 57 | 1010.8 |
| 20260504170335 | 70 | 270 | 9.0 | 12.0 | 0.00 | 0.00 | 0.00 | 58 | 1010.8 |
| 20260504160347 | 70 | 248 | 14.0 | 14.0 | 0.00 | 0.00 | 0.00 | 57 | 1011.5 |
| 20260504141236 | 65 | 270 | 7.0 | 7.0 | 0.00 | 0.00 | 0.00 | 55 | 1012.1 |
| 20260504140653 | 65 | 270 | 7.0 | 13.0 | 0.00 | 0.00 | 0.00 | 54 | 1012.1 |
| 20260504130633 | 63 | 225 | 5.0 | 6.0 | 0.00 | 0.00 | 0.00 | 57 | 1012.1 |
| 20260504110627 | 48 | 270 | 0.0 | 0.0 | 0.00 | 0.00 | 0.00 | 98 | 1012.8 |
| 20260504081815 | 47 | 113 | 0.0 | 2.0 | 0.00 | 0.00 | 0.00 | 95 | 1013.8 |
| 20260504081216 | 46 | 248 | 0.0 | 0.0 | 0.00 | 0.00 | 0.00 | 94 | 1013.8 |
| 20260504080626 | 47 | 270 | 0.0 | 0.0 | 0.00 | 0.00 | 0.00 | 91 | 1013.8 |
| 20260504045417 | 46 | 270 | 0.0 | 0.0 | 0.00 | 0.00 | 0.00 | 86 | 1014.5 |
| 20260504044831 | 46 | 270 | 0.0 | 0.0 | 0.00 | 0.00 | 0.00 | 87 | 1014.5 |
| 20260504044221 | 46 | 270 | 0.0 | 0.0 | 0.00 | 0.00 | 0.00 | 87 | 1014.5 |
| 20260504043642 | 46 | 270 | 0.0 | 0.0 | 0.00 | 0.00 | 0.00 | 86 | 1014.5 |
| 20260504043048 | 46 | 270 | 0.0 | 0.0 | 0.00 | 0.00 | 0.00 | 85 | 1014.5 |
| 20260504042431 | 46 | 270 | 0.0 | 0.0 | 0.00 | 0.00 | 0.00 | 87 | 1014.5 |
| 20260504041228 | 46 | 270 | 0.0 | 0.0 | 0.00 | 0.00 | 0.00 | 85 | 1014.2 |
| 20260504040644 | 46 | 270 | 0.0 | 0.0 | 0.00 | 0.00 | 0.00 | 85 | 1014.5 |
| 20260504040030 | 46 | 270 | 0.0 | 0.0 | 0.00 | 0.00 | 0.00 | 85 | 1014.5 |
| 20260504035428 | 46 | 293 | 0.0 | 0.0 | 0.00 | 0.00 | 0.00 | 87 | 1014.2 |
| 20260504034215 | 45 | 270 | 0.0 | 0.0 | 0.00 | 0.00 | 0.00 | 88 | 1014.2 |
| 20260504033612 | 45 | 293 | 0.0 | 0.0 | 0.00 | 0.00 | 0.00 | 85 | 1014.5 |
| 20260504033036 | 45 | 293 | 0.0 | 0.0 | 0.00 | 0.00 | 0.00 | 85 | 1014.5 |
| 20260504031244 | 44 | 270 | 0.0 | 0.0 | 0.00 | 0.00 | 0.00 | 88 | 1014.5 |
| 20260504030018 | 44 | 270 | 0.0 | 0.0 | 0.00 | 0.00 | 0.00 | 88 | 1014.5 |
| 20260504025414 | 44 | 270 | 0.0 | 0.0 | 0.00 | 0.00 | 0.00 | 87 | 1014.5 |
| 20260504024824 | 44 | 270 | 0.0 | 0.0 | 0.00 | 0.00 | 0.00 | 85 | 1014.5 |
| 20260504024220 | 44 | 270 | 0.0 | 0.0 | 0.00 | 0.00 | 0.00 | 85 | 1014.5 |
| 20260504023633 | 44 | 270 | 0.0 | 0.0 | 0.00 | 0.00 | 0.00 | 85 | 1014.5 |
| 20260504023027 | 44 | 270 | 0.0 | 0.0 | 0.00 | 0.00 | 0.00 | 85 | 1014.5 |
| 20260504022437 | 45 | 270 | 0.0 | 0.0 | 0.00 | 0.00 | 0.00 | 83 | 1014.5 |
| 20260504021834 | 46 | 270 | 0.0 | 0.0 | 0.00 | 0.00 | 0.00 | 83 | 1014.5 |
| 20260504020620 | 47 | 270 | 0.0 | 0.0 | 0.00 | 0.00 | 0.00 | 81 | 1014.5 |
| 20260504020020 | 47 | 248 | 0.0 | 0.0 | 0.00 | 0.00 | 0.00 | 78 | 1014.5 |
| 20260504015443 | 47 | 270 | 0.0 | 0.0 | 0.00 | 0.00 | 0.00 | 80 | 1014.5 |
| 20260504014826 | 48 | 225 | 0.0 | 0.0 | 0.00 | 0.00 | 0.00 | 75 | 1014.5 |
| 20260504014244 | 49 | 248 | 0.0 | 0.0 | 0.00 | 0.00 | 0.00 | 74 | 1014.5 |
| 20260504013650 | 49 | 248 | 0.0 | 0.0 | 0.00 | 0.00 | 0.00 | 74 | 1014.5 |
| 20260504012412 | 50 | 248 | 0.0 | 0.0 | 0.00 | 0.00 | 0.00 | 73 | 1014.5 |
| 20260504011837 | 50 | 248 | 0.0 | 0.0 | 0.00 | 0.00 | 0.00 | 70 | 1014.5 |
| 20260504011214 | 50 | 225 | 0.0 | 0.0 | 0.00 | 0.00 | 0.00 | 70 | 1014.5 |
| 20260504010635 | 50 | 270 | 0.0 | 0.0 | 0.00 | 0.00 | 0.00 | 73 | 1014.5 |
| 20260504010049 | 51 | 225 | 0.0 | 0.0 | 0.00 | 0.00 | 0.00 | 70 | 1014.2 |
| 20260504005438 | 51 | 270 | 0.0 | 0.0 | 0.00 | 0.00 | 0.00 | 68 | 1014.2 |
| 20260504004247 | 52 | 180 | 0.0 | 0.0 | 0.00 | 0.00 | 0.00 | 65 | 1014.2 |
| 20260504003614 | 53 | 248 | 0.0 | 0.0 | 0.00 | 0.00 | 0.00 | 65 | 1014.2 |
| 20260504003040 | 53 | 158 | 0.0 | 0.0 | 0.00 | 0.00 | 0.00 | 62 | 1013.8 |
| 20260504002436 | 54 | 270 | 0.0 | 0.0 | 0.00 | 0.00 | 0.00 | 64 | 1013.8 |
| 20260504001818 | 54 | 158 | 0.0 | 0.0 | 0.00 | 0.00 | 0.00 | 62 | 1013.8 |
| 20260504001219 | 55 | 180 | 0.0 | 0.0 | 0.00 | 0.00 | 0.00 | 62 | 1014.2 |
| 20260504000654 | 56 | 180 | 0.0 | 0.0 | 0.00 | 0.00 | 0.00 | 59 | 1014.2 |
| 20260504000042 | 57 | 180 | 0.0 | 0.0 | 0.00 | 0.00 | 0.00 | 57 | 1013.8 |
| 20260503235412 | 57 | 158 | 0.0 | 0.0 | 0.00 | 0.00 | 0.00 | 58 | 1013.8 |
| 20260503234815 | 57 | 180 | 0.0 | 0.0 | 0.00 | 0.00 | 0.00 | 56 | 1013.8 |
| 20260503234236 | 57 | 180 | 0.0 | 0.0 | 0.00 | 0.00 | 0.00 | 55 | 1014.2 |
| 20260503233627 | 59 | 158 | 2.0 | 2.0 | 0.00 | 0.00 | 0.00 | 52 | 1014.2 |
| 20260503233035 | 60 | 158 | 0.0 | 2.0 | 0.00 | 0.00 | 0.00 | 53 | 1014.2 |
| 20260503232447 | 61 | 180 | 3.0 | 3.0 | 0.00 | 0.00 | 0.00 | 50 | 1014.2 |
| 20260503231818 | 62 | 248 | 0.0 | 6.0 | 0.00 | 0.00 | 0.00 | 45 | 1014.2 |